sat.trackr.live / text

‹ back to catalog

STARLINK-2358

NORAD 47898 · 2021-021AQ

PAYLOAD ACTIVE UNKNOWN

§ Identity

Operator
Country
US
Launch date
2021-03-14
Launch site
AFETR
Launch vehicle
Mass (kg)
RCS (m²)

Purposes: comms

External: N2YO · Heavens-Above · Gunter

§ Orbital elements

Epoch: 2026-05-25T01:13:42.942144Z

Period
94.01 min
Inclination
53.1597°
Eccentricity
0.0001065
Mean motion
15.31721114 rev/d
Perigee alt
469.9 km
Apogee alt
471.4 km
Semi-major
6,848.8 km
B*
-3.9835e-6
RAAN
272.9287°
Arg perigee
85.0067°
Mean anomaly
275.1056°
Rev number
28,789

§ Raw data

STARLINK-23581 47898U 21021AQ  26145.05119146 -.00000489  00000+0 -39835-5 0  99922 47898  53.1597 272.9287 0001065  85.0067 275.1056 15.31721114287899

JSON: /api/v1/satellites/47898 · /tle

For live sub-satellite position, see the globe view (requires WebGL).

§ Visibility from observer

Set your observer location to see the next 7 days of passes ≥ 10°. The values pass through the URL so the page stays shareable.

No JS? Fill the form by hand. The geolocation button needs JavaScript.